User: anonymous   Login
Location: Gorze? G�rny
(49.8500°N, 19.5000°E)
Time: 17:24:45
(UTC+00:00)
Language:

Cosmos 2184 Rocket - Orbit

View from above orbital plane
View from above orbital plane
View from above satellite
View from above satellite

Ground track
Ground track

The orbit data is extracted from the following two-line orbital elements,

1 21938U 92020B   21210.81859649  .00000066  00000-0  52852-4 0  9990
2 21938  82.9326 324.1249 0028242 318.9690 158.2596 13.75291633469661
Epoch (UTC): 29 July 2021 19:38:46
Eccentricity: 0.0028242
inclination: 82.9326°
perigee height: 960 km
apogee height: 1001 km
right ascension of ascending node: 324.1249°
argument of perigee: 318.9690°
revolutions per day: 13.75291633
mean anomaly at epoch: 158.2596°
orbit number at epoch: 46966

The dashed part of the orbit path shows where the satellite is in the earth's shadow,  

DLR